Location: Holyhead Bay
(53.3667°N, 4.6667°W)
Time: 18:25:50
(UTC+00:00)

SJ-7 - Pass Details

Date: 24 November 2020
Orbit: 556 x 601 km, 97.7° (Epoch: 17 January)

Event Time Altitude Azimuth Distance (km) Brightness Sun altitude
Rises 17:00:07 0° 165° (SSE) 2,742 8.0 -7.3°
Reaches altitude 10° 17:02:15 10° 166° (SSE) 1,847 7.2 -7.6°
Maximum altitude 17:06:14 85° 254° (WSW) 568 4.4 -8.1°
Drops below altitude 10° 17:10:16 10° 345° (NNW) 1,855 6.9 -8.7°
Sets 17:12:24 0° 346° (NNW) 2,756 7.8 -9.0°
